Flag for Fiji Weather past 2 weeks in Lautoka, Fiji

Now
68 °F

Passing clouds.


Feels Like: 68 °F
Forecast: 72 / 81 °F
Wind: 3 mph from Southeast

Location: Nandi

Current Time: Sep 1, 2015 at 3:39:34 AM

Latest Report: Sep 1, 2015 at 3:00 AM


Visibility: N/A

Pressure: 29.98 "Hg

Humidity: 83%

Dew point: 63 °F

Location of LautokaLocation

Historic Weather in Lautoka — Graph

°F

Lautoka temperature yesterday

Maximum temperature yesterday: 77 °F (at 11:00 AM)
Minimum temperature yesterday: 57 °F (at 7:00 AM)
Average temperature yesterday: 69 °F

Past Weeks' High & Low Weather Summary

 TemperatureHumidityPressure
High84 °F (Aug 25, 1:00 PM)100% (Aug 17, 7:00 AM)30.09 "Hg (Aug 17, 7:00 AM)
Low57 °F (Aug 31, 7:00 AM)42% (Aug 26, 2:00 PM)29.86 "Hg (Aug 24, 4:00 PM)
Average73 °F77%29.99 "Hg
* Reported Aug 17 2:00 AM — Sep 1 2:00 AM, Lautoka, Weather by CustomWeather, © 2015

Note: Actual official high and low records may vary slightly from our data, if they occured in-between our weather recording intervals... More about our weather records

Advertising

Lautoka weather history for previous 24 hours

 ConditionsComfort  
Time TempWeatherWind HumidityBarometerVisibility
2:00 AM
Tue, Sep 1
68 °FPassing clouds.8 mph83%30.01 "HgN/A
1:00 AM70 °FPartly cloudy.3 mph83%30.01 "HgN/A
12:00 AM70 °FPartly cloudy.3 mph78%30.04 "HgN/A
11:00 PM
Mon, Aug 31
70 °FPartly cloudy.2 mph78%30.04 "HgN/A
10:00 PM70 °FPartly cloudy.5 mph73%30.04 "HgN/A
9:00 PM70 °FPartly cloudy.2 mph78%30.01 "HgN/A
8:00 PM72 °FPartly cloudy.3 mph69%30.01 "HgN/A
7:00 PM73 °FPartly cloudy.3 mph65%29.98 "HgN/A
6:00 PM73 °FBroken clouds.6 mph61%29.95 "HgN/A
5:00 PM75 °FBroken clouds.8 mph57%29.95 "HgN/A
4:00 PM77 °FBroken clouds.10 mph57%29.95 "Hg31 mi
3:00 PM77 °FScattered clouds.10 mph57%29.95 "HgN/A
2:00 PM77 °FScattered clouds.12 mph54%29.98 "HgN/A
1:00 PM75 °FScattered clouds.10 mph57%29.98 "HgN/A
12:00 PM77 °FScattered clouds.5 mph54%30.01 "HgN/A
11:00 AM77 °FScattered clouds.5 mph51%30.04 "HgN/A
10:00 AM75 °FPassing clouds.5 mph54%30.04 "Hg31 mi
9:00 AM72 °FPassing clouds.3 mph61%30.04 "Hg31 mi
8:00 AM64 °FPassing clouds.3 mph73%30.04 "HgN/A
7:00 AM57 °FPassing clouds.5 mph94%30.01 "HgN/A
6:00 AM59 °FPassing clouds.5 mph94%30.01 "HgN/A
5:00 AM59 °FPassing clouds.5 mph94%29.98 "HgN/A
4:00 AM61 °FPassing clouds.3 mph88%29.98 "HgN/A
3:00 AM63 °FPassing clouds.3 mph83%30.01 "HgN/A
Weather by CustomWeather, © 2015

See weather overviewHow to use our weather pages